Location: Emblem
(44.5058°N, 108.3917°W)
Time: 05:06:30
(UTC+00:00)

Envisat - Visible Passes

Search period start: 25 January 2022 00:00
Search period end: 04 February 2022 00:00
Orbit: 764 x 766 km, 98.2° (Epoch: 24 January)

Date Brightness Start Highest point End Pass type
(mag) Time Alt. Az. Time Alt. Az. Time Alt. Az.
25 Jan 4.1 11:39:29 10° NNE 11:44:19 42° E 11:49:08 10° S visible
25 Jan 3.9 13:18:56 10° N 13:23:07 26° WNW 13:27:15 10° WSW visible
26 Jan 5.9 00:36:54 10° SW 00:39:58 16° W 00:43:03 10° NW visible
26 Jan 5.3 11:03:27 10° NE 11:07:10 20° E 11:10:51 10° SE visible
26 Jan 3.0 12:41:33 10° N 12:46:29 53° WNW 12:51:24 10° SSW visible
27 Jan 3.1 12:04:34 10° NNE 12:09:41 73° ESE 12:14:44 10° S visible
27 Jan 4.4 13:45:01 10° NNW 13:48:05 16° WNW 13:51:10 10° W visible
28 Jan 4.5 11:28:03 10° NNE 11:32:39 34° E 11:37:14 10° SSE visible
28 Jan 3.6 13:07:08 10° N 13:11:37 32° WNW 13:16:04 10° SW visible
29 Jan 5.6 10:52:22 10° NE 10:55:26 16° E 10:58:29 10° SE visible
29 Jan 2.9 12:29:53 10° N 12:34:56 67° WNW 12:39:57 10° SSW visible
30 Jan 3.5 11:53:01 10° NNE 11:58:03 58° E 12:03:03 10° S visible
30 Jan 4.2 13:33:00 10° NNW 13:36:38 20° WNW 13:40:16 10° WSW visible
31 Jan 6.3 00:52:10 10° WSW 00:53:51 11° W 00:55:31 10° WNW visible
31 Jan 4.9 11:16:42 10° NE 11:20:59 27° E 11:25:14 10° SSE visible
31 Jan 3.4 12:55:22 10° N 13:00:06 40° WNW 13:04:48 10° SW visible
01 Feb 5.9 10:41:38 10° ENE 10:43:42 12° E 10:45:46 10° ESE visible
01 Feb 2.8 12:18:14 10° NNE 12:23:21 84° WNW 12:28:26 10° SSW visible
01 Feb 4.7 13:59:31 10° NNW 14:01:34 12° WNW 14:03:37 10° W visible
02 Feb 4.0 11:41:32 10° NNE 11:46:25 45° E 11:51:16 10° S visible
02 Feb 4.0 13:21:06 10° N 13:25:10 25° WNW 13:29:13 10° WSW visible
03 Feb 5.2 11:05:25 10° NE 11:09:17 21° E 11:13:07 10° SE visible
03 Feb 3.1 12:43:39 10° N 12:48:34 50° WNW 12:53:26 10° SW visible
